Regional Weather Roundup
Issued by NWS

Home | Current Version | Previous Version | Text Only | Print | Product List | Glossary Off
Versions: 1 2 3 4 5 6 7 8 9 10 11 12 13 14 15 16 17 18 19 20 21 22 23 24 25 26 27 28 29 30 31 32 33 34 35 36 37 38 39 40 41 42 43 44 45 46 47 48 49 50

507
ASUS45 KBOU 241907
RWRCO

WEATHER ROUNDUP FOR COLORADO
NATIONAL WEATHER SERVICE DENVER/BOULDER CO
100 PM MDT SUN SEP 24 2017

NOTE: "FAIR" INDICATES FEW OR NO CLOUDS BELOW 12000 FEET WITH NO
SIGNIFICANT WEATHER AND/OR OBSTRUCTIONS TO VISIBILITY.

COZ001>005-013-030-031-242000-
...NORTHWEST COLORADO...

CITY           SKY/WX    TMP DP  RH WIND       PRES   REMARKS
CRAIG          CLOUDY    56  27  32 SW20G31   29.91F
HAYDEN         FAIR      51  34  52 N7        29.94S
MEEKER         FAIR      57  28  33 S17G30    29.92S
RABBIT EARS PA MOCLDY    37  34  87 NW6       30.04S
STEAMBOAT SPGS FAIR      53  33  46 W12G17    29.92S
WALDEN         FAIR      41  39  93 CALM      29.97F
$$

COZ006>008-011-242000-
...WEST CENTRAL VALLEYS...

CITY           SKY/WX    TMP DP  RH WIND       PRES   REMARKS
GRAND JUNCTION FAIR      56  37  49 NW14      29.93S
MONTROSE       FAIR      59  34  39 N12G18    29.93S
EAGLE          FAIR      54  38  54 CALM      29.91F
RIFLE          PTSUNNY   56  34  43 W22       29.90S
DELTA          NOT AVBL
NUCLA          FAIR      59  23  25 SW18G31   30.00S
$$

COZ017>023-064>068-242000-
...SOUTHWEST COLORADO...

CITY           SKY/WX    TMP DP  RH WIND       PRES   REMARKS
DURANGO        FAIR      56  24  29 VRB6      30.01F
CORTEZ         FAIR      58  24  27 SW14G24   29.99S
PAGOSA SPRINGS FAIR      53  22  30 CALM      30.05S
TELLURIDE      PTSUNNY   47  18  31 SW12G23   30.04S
WOLF CREEK PAS FAIR      32  25  74 S14G24    30.20S WCI  22
$$

COZ009-010-012-014-032>034-037-058>063-242000-
...CENTRAL COLORADO...

CITY           SKY/WX    TMP DP  RH WIND       PRES   REMARKS
ASPEN          FAIR      58  29  33 NW9G18    29.89F
BUENA VISTA    FAIR      57  23  26 SE18G25   29.96F
COPPER MTN     FAIR      45  21  39 SE21G30   30.09S
BERTHOUD PASS  HAZE      27  18  69 SE26G37   30.13R VSB<1/4 WCI  11
COTTONWOOD PAS FAIR      54  23  30 SE22      30.03F
GUNNISON       FAIR      59  19  21 W8G17     29.91F
KREMMLING      FAIR      63  34  34 SW5       29.91F
LEADVILLE      FAIR      48  20  32 S23       29.99F
MONARCH PASS   FAIR      37  21  52 S15G25    30.23S
SALIDA         FAIR      61  29  30 SE13G22   30.03S
SUNLIGHT       PTSUNNY   37  30  75 W10G20    30.07S
WILKERSON PASS FAIR      41  32  70 SW13G21   30.15R
$$

COZ069>075-242000-
...SAN LUIS VALLEY/SANGRE DE CRISTO MOUNTAINS...

CITY           SKY/WX    TMP DP  RH WIND       PRES   REMARKS
ALAMOSA        FAIR      61  19  19 S17G28    29.98F
DEL NORTE      FAIR      57  21  24 NW10      29.99F
LA VETA PASS   FAIR      54  30  40 S16G31    30.22F
SAGUACHE       FAIR      57  23  26 S10G18    29.99F
$$

COZ035-036-038>040-242000-
...NORTHERN COLORADO FRONT RANGE...

CITY           SKY/WX    TMP DP  RH WIND       PRES   REMARKS
DENVER INTL AP CLOUDY    48  45  89 E14       30.00S FOG
DMNS CITY PARK   N/A     48  47  97 E9G21     29.99S
AURORA         DRIZZLE   47  47 100 E10       30.00S FOG
FRONT RANGE AP FOG       48  46  93 NE12      30.02S VSB 1
ERIE MUNI ARPT LGT RAIN  49  46  89 E10       30.05S
BOULDER MUN AP CLOUDY    48  46  93 NE8       29.99F
CENTENNIAL     DRIZZLE   48  47  96 E8        29.99S
BROOMFIELD     DRIZZLE   48  46  93 NE7       30.01S
FORT COLLINS   CLOUDY    48  45  89 E10       30.01F
LONGMONT       CLOUDY    51  47  87 E10       30.01F FOG
$$

COZ041-046-047-076>085-087-088-242000-
...PIKES PEAK/PALMER DIVIDE AND SOUTHERN FOOTHILLS...

CITY           SKY/WX    TMP DP  RH WIND       PRES   REMARKS
COLO. SPRINGS  CLOUDY    53  47  79 SE16      30.00F
A. F. ACADEMY  CLOUDY    54  44  70 S12       29.99S
SCHRIEVER AFB  CLOUDY    50  48  93 MISG      30.01S
CHEYENNE MTN   PTSUNNY   47  46  94 SE14      29.96F
ELLICOTT       CLOUDY   N/A N/A N/A E12       29.99S
FALCON         CLOUDY    49  47  93 S10       30.03R
FORT CARSON    CLOUDY    53  48  83 SE13      29.98S
LIMON            N/A    N/A N/A N/A MISG      30.00F
MONUMENT HILL  CLOUDY    46  45  93 E14       30.02F
CANON CITY     CLOUDY    55  52  88 E8        29.97S
WALSENBURG     MOCLDY    59  50  72 E10       29.96F
TRINIDAD       CLOUDY    56  50  80 E7        29.96F
$$

COZ042>045-048>051-090-091-242000-
...NORTHEAST COLORADO...

CITY           SKY/WX    TMP DP  RH WIND       PRES   REMARKS
GREELEY ARPT   CLOUDY    49  46  90 E10       30.01F
AKRON          CLOUDY    47  44  90 NE10      30.01S FOG
BURLINGTON     CLOUDY    50  49  96 NE10      30.00S
WRAY           CLOUDY    52  48  87 N8        30.01S
YUMA           CLOUDY    48  46  93 NE8       30.00F
STERLING       CLOUDY    52  45  76 NE10      30.00S
HOLYOKE        CLOUDY    54  50  87 NE8       30.01S FOG
FORT MORGAN    CLOUDY    50  42  73 E12       30.02S
$$

COZ086-089-092>099-242000-
...SOUTHEAST COLORADO...

CITY           SKY/WX    TMP DP  RH WIND       PRES   REMARKS
PUEBLO         CLOUDY    54  49  83 SE3       29.96F
LA JUNTA       CLOUDY    57  54  89 E5        29.94F
LAMAR          LGT RAIN  57  55  93 NE12      29.91F FOG
SPRINGFIELD      N/A     59  59 100 NW9       29.92F
$$




USA.gov is the U.S. government's official web portal to all federal, state and local government web resources and services.